MSC002 HECA-HESH

Flight info

Callsign MSC002
Flight time 0h 52m
Altitude 27000
Route CVO L677 MENLI N697 SISIK V603 DASOT DCT SHM
Aircraft A320/M-SDE3FGHIRWY/LB1

Departure

Time 2026-05-08 22:37
Airport Cairo International Airport (HECA)

Arrival

Time 2026-05-08 23:29
Airport Sharm El Sheikh International Airport (HESH)
Time Latitude Longitude Altitude Speed Heading
2026-05-08 22:08 30.10860 31.39865 374 ft 0 kts 75°
2026-05-08 22:27 30.10859 31.39864 374 ft 2 kts 75°
2026-05-08 22:27 30.10853 31.39835 374 ft 4 kts 75°
2026-05-08 22:28 30.10847 31.39809 374 ft 3 kts 76°
2026-05-08 22:28 30.10844 31.39781 374 ft 4 kts 110°
2026-05-08 22:28 30.10859 31.39760 374 ft 4 kts 160°
2026-05-08 22:28 30.10879 31.39754 374 ft 0 kts 165°
2026-05-08 22:32 30.10852 31.39762 374 ft 11 kts 165°
2026-05-08 22:32 30.10777 31.39784 374 ft 11 kts 166°
2026-05-08 22:32 30.10708 31.39806 374 ft 10 kts 164°
2026-05-08 22:33 30.10635 31.39829 374 ft 15 kts 165°
2026-05-08 22:33 30.10522 31.39864 374 ft 17 kts 165°
2026-05-08 22:33 30.10415 31.39865 374 ft 15 kts 216°
2026-05-08 22:33 30.10340 31.39770 374 ft 18 kts 228°
2026-05-08 22:34 30.10246 31.39647 374 ft 18 kts 229°
2026-05-08 22:34 30.10152 31.39585 374 ft 15 kts 169°
2026-05-08 22:34 30.10072 31.39649 374 ft 13 kts 140°
2026-05-08 22:34 30.10014 31.39721 374 ft 11 kts 115°
2026-05-08 22:35 30.10000 31.39812 374 ft 12 kts 97°
2026-05-08 22:35 30.10017 31.39890 371 ft 4 kts 48°
2026-05-08 22:35 30.10025 31.39900 371 ft 0 kts 48°
2026-05-08 22:35 30.10025 31.39901 371 ft 0 kts 48°
2026-05-08 22:36 30.10026 31.39903 371 ft 2 kts 48°
2026-05-08 22:36 30.10117 31.40021 372 ft 53 kts 49°
2026-05-08 22:36 30.10519 31.40555 378 ft 119 kts 49°
2026-05-08 22:36 30.11187 31.41427 408 ft 166 kts 46°
2026-05-08 22:37 30.11981 31.42425 1032 ft 170 kts 46°
2026-05-08 22:37 30.12754 31.43437 1883 ft 166 kts 49°
2026-05-08 22:37 30.13566 31.44422 2457 ft 179 kts 43°
2026-05-08 22:37 30.14493 31.45515 2853 ft 203 kts 50°
2026-05-08 22:38 30.15262 31.46953 3500 ft 221 kts 68°
2026-05-08 22:38 30.15271 31.48831 4043 ft 251 kts 105°
2026-05-08 22:38 30.14218 31.50504 4882 ft 271 kts 141°
2026-05-08 22:38 30.12582 31.51669 5700 ft 282 kts 144°
2026-05-08 22:39 30.11097 31.53162 6471 ft 287 kts 126°
2026-05-08 22:39 30.10017 31.55140 7200 ft 291 kts 114°
2026-05-08 22:39 30.09162 31.57236 8191 ft 292 kts 111°
2026-05-08 22:39 30.08328 31.59394 9025 ft 296 kts 112°
2026-05-08 22:40 30.07408 31.61537 9908 ft 299 kts 117°
2026-05-08 22:40 30.06322 31.63537 11012 ft 290 kts 123°
2026-05-08 22:40 30.04976 31.65358 11527 ft 308 kts 130°
2026-05-08 22:40 30.03533 31.67301 11854 ft 330 kts 128°
2026-05-08 22:41 30.02023 31.69429 12108 ft 354 kts 127°
2026-05-08 22:41 30.00435 31.71700 12497 ft 370 kts 127°
2026-05-08 22:41 29.98800 31.74028 13146 ft 377 kts 128°
2026-05-08 22:41 29.97138 31.76369 13948 ft 378 kts 128°
2026-05-08 22:42 29.95449 31.78729 14547 ft 385 kts 128°
2026-05-08 22:42 29.93730 31.81117 15243 ft 387 kts 129°
2026-05-08 22:42 29.92003 31.83499 15950 ft 389 kts 129°
2026-05-08 22:42 29.90254 31.85914 16604 ft 392 kts 129°
2026-05-08 22:43 29.88501 31.88331 17240 ft 396 kts 130°
2026-05-08 22:43 29.86728 31.90776 17875 ft 399 kts 129°
2026-05-08 22:43 29.84942 31.93248 18469 ft 404 kts 130°
2026-05-08 22:43 29.83130 31.95749 18987 ft 407 kts 130°
2026-05-08 22:44 29.81312 31.98254 19510 ft 411 kts 130°
2026-05-08 22:44 29.79470 32.00795 20019 ft 414 kts 130°
2026-05-08 22:44 29.77617 32.03345 20511 ft 418 kts 130°
2026-05-08 22:44 29.75741 32.05929 21008 ft 422 kts 130°
2026-05-08 22:45 29.73849 32.08543 21502 ft 426 kts 130°
2026-05-08 22:45 29.71948 32.11164 21976 ft 430 kts 130°
2026-05-08 22:45 29.70017 32.13821 22456 ft 434 kts 130°
2026-05-08 22:45 29.68070 32.16495 22914 ft 437 kts 131°
2026-05-08 22:46 29.66108 32.19182 23363 ft 441 kts 131°
2026-05-08 22:46 29.64125 32.21899 23789 ft 445 kts 131°
2026-05-08 22:46 29.62133 32.24629 24169 ft 448 kts 131°
2026-05-08 22:46 29.60124 32.27386 24563 ft 451 kts 131°
2026-05-08 22:47 29.58099 32.30164 24947 ft 454 kts 131°
2026-05-08 22:47 29.56062 32.32954 25338 ft 457 kts 131°
2026-05-08 22:47 29.54009 32.35760 25729 ft 461 kts 131°
2026-05-08 22:47 29.51939 32.38586 26071 ft 465 kts 131°
2026-05-08 22:48 29.49859 32.41430 26435 ft 468 kts 131°
2026-05-08 22:48 29.47747 32.44304 26807 ft 471 kts 131°
2026-05-08 22:48 29.45636 32.47172 27046 ft 472 kts 131°
2026-05-08 22:48 29.43526 32.50041 27069 ft 470 kts 131°
2026-05-08 22:49 29.41408 32.52921 27071 ft 479 kts 131°
2026-05-08 22:49 29.37017 32.58904 27072 ft 500 kts 131°
2026-05-08 22:49 29.34756 32.61985 27068 ft 509 kts 131°
2026-05-08 22:50 29.32468 32.65097 27060 ft 511 kts 131°
2026-05-08 22:50 29.30172 32.68211 27062 ft 512 kts 131°
2026-05-08 22:50 29.27879 32.71329 27047 ft 512 kts 131°
2026-05-08 22:50 29.25596 32.74432 27053 ft 508 kts 131°
2026-05-08 22:51 29.23321 32.77523 27053 ft 507 kts 131°
2026-05-08 22:51 29.21051 32.80604 27055 ft 506 kts 131°
2026-05-08 22:51 29.18773 32.83683 27046 ft 506 kts 131°
2026-05-08 22:51 29.16496 32.86747 27044 ft 506 kts 131°
2026-05-08 22:52 29.14214 32.89814 27057 ft 506 kts 131°
2026-05-08 22:52 29.11938 32.92873 27057 ft 506 kts 131°
2026-05-08 22:52 29.09658 32.95941 27054 ft 506 kts 131°
2026-05-08 22:52 29.07384 32.98999 27052 ft 505 kts 131°
2026-05-08 22:53 29.05108 33.02053 27050 ft 505 kts 131°
2026-05-08 22:53 29.02868 33.05062 27038 ft 485 kts 131°
2026-05-08 22:53 29.00722 33.07952 27042 ft 472 kts 131°
2026-05-08 22:53 28.98608 33.10790 27044 ft 467 kts 131°
2026-05-08 22:54 28.96506 33.13604 27028 ft 466 kts 131°
2026-05-08 22:54 28.94405 33.16419 27028 ft 466 kts 131°
2026-05-08 22:54 28.92308 33.19241 27029 ft 465 kts 131°
2026-05-08 22:54 28.90211 33.22057 27031 ft 465 kts 131°
2026-05-08 22:55 28.88116 33.24868 27030 ft 465 kts 131°
2026-05-08 22:55 28.86017 33.27671 26976 ft 466 kts 131°
2026-05-08 22:55 28.83908 33.30475 26735 ft 465 kts 131°
2026-05-08 22:55 28.81808 33.33276 26468 ft 464 kts 131°
2026-05-08 22:56 28.79714 33.36075 26226 ft 462 kts 131°
2026-05-08 22:56 28.77632 33.38858 25985 ft 461 kts 131°
2026-05-08 22:56 28.75551 33.41627 25746 ft 459 kts 131°
2026-05-08 22:56 28.73482 33.44371 25502 ft 457 kts 131°
2026-05-08 22:57 28.71416 33.47114 25276 ft 455 kts 131°
2026-05-08 22:57 28.69361 33.49848 25046 ft 453 kts 131°
2026-05-08 22:57 28.67319 33.52572 24821 ft 451 kts 131°
2026-05-08 22:57 28.65283 33.55279 24576 ft 450 kts 131°
2026-05-08 22:58 28.63255 33.57974 24349 ft 448 kts 131°
2026-05-08 22:58 28.61911 33.59756 24200 ft 446 kts 131°
2026-05-08 22:58 28.59891 33.62429 23978 ft 445 kts 131°
2026-05-08 22:58 28.57879 33.65089 23754 ft 443 kts 131°
2026-05-08 22:59 28.55844 33.67782 23527 ft 442 kts 131°
2026-05-08 22:59 28.53872 33.70391 23246 ft 439 kts 131°
2026-05-08 22:59 28.51896 33.73006 22646 ft 434 kts 132°
2026-05-08 22:59 28.49933 33.75605 22074 ft 430 kts 131°
2026-05-08 23:00 28.47995 33.78167 21514 ft 426 kts 131°
2026-05-08 23:00 28.46066 33.80716 20996 ft 422 kts 131°
2026-05-08 23:00 28.44162 33.83232 20451 ft 419 kts 131°
2026-05-08 23:00 28.42270 33.85733 19937 ft 416 kts 131°
2026-05-08 23:01 28.40383 33.88220 19405 ft 414 kts 131°
2026-05-08 23:01 28.38509 33.90679 18877 ft 412 kts 131°
2026-05-08 23:01 28.36633 33.93145 18328 ft 411 kts 131°
2026-05-08 23:01 28.34765 33.95602 17704 ft 410 kts 131°
2026-05-08 23:02 28.32919 33.98038 17150 ft 407 kts 132°
2026-05-08 23:02 28.31074 34.00462 16607 ft 404 kts 131°
2026-05-08 23:02 28.29264 34.02838 16411 ft 391 kts 131°
2026-05-08 23:02 28.27520 34.05125 16293 ft 378 kts 131°
2026-05-08 23:03 28.25822 34.07353 15981 ft 370 kts 132°
2026-05-08 23:03 28.24165 34.09527 15765 ft 360 kts 132°
2026-05-08 23:03 28.22541 34.11652 15461 ft 354 kts 132°
2026-05-08 23:03 28.20936 34.13746 15175 ft 349 kts 132°
2026-05-08 23:04 28.19355 34.15812 14884 ft 344 kts 132°
2026-05-08 23:04 28.17795 34.17853 14613 ft 341 kts 132°
2026-05-08 23:04 28.16249 34.19875 14277 ft 339 kts 132°
2026-05-08 23:04 28.14713 34.21879 13922 ft 337 kts 132°
2026-05-08 23:05 28.13178 34.23880 13592 ft 334 kts 132°
2026-05-08 23:05 28.11663 34.25857 13226 ft 332 kts 132°
2026-05-08 23:05 28.10142 34.27841 12742 ft 333 kts 132°
2026-05-08 23:05 28.08654 34.29792 12613 ft 323 kts 132°
2026-05-08 23:06 28.07204 34.31693 12476 ft 313 kts 132°
2026-05-08 23:06 28.05789 34.33541 12215 ft 309 kts 132°
2026-05-08 23:06 28.04385 34.35373 11917 ft 307 kts 131°
2026-05-08 23:06 28.02991 34.37186 11675 ft 302 kts 133°
2026-05-08 23:07 28.01380 34.38638 11397 ft 296 kts 156°
2026-05-08 23:07 27.99405 34.39145 11084 ft 290 kts 184°
2026-05-08 23:07 27.97484 34.38616 10747 ft 285 kts 210°
2026-05-08 23:07 27.95938 34.37269 10390 ft 282 kts 225°
2026-05-08 23:08 27.94502 34.35741 10033 ft 283 kts 225°
2026-05-08 23:08 27.93075 34.34218 9684 ft 282 kts 225°
2026-05-08 23:08 27.91643 34.32692 9294 ft 282 kts 225°
2026-05-08 23:08 27.90214 34.31172 8744 ft 288 kts 224°
2026-05-08 23:09 27.88717 34.29582 7976 ft 300 kts 224°
2026-05-08 23:09 27.87170 34.27941 7200 ft 311 kts 223°
2026-05-08 23:09 27.85588 34.26267 6416 ft 310 kts 222°
2026-05-08 23:09 27.84019 34.24609 5622 ft 307 kts 223°
2026-05-08 23:10 27.82470 34.22994 4891 ft 301 kts 219°
2026-05-08 23:10 27.80634 34.21955 4129 ft 296 kts 189°
2026-05-08 23:10 27.78648 34.22201 3665 ft 282 kts 153°
2026-05-08 23:10 27.77262 34.23565 3494 ft 253 kts 115°
2026-05-08 23:11 27.76941 34.25346 3393 ft 221 kts 75°
2026-05-08 23:11 27.77662 34.26702 3320 ft 197 kts 31°
2026-05-08 23:11 27.78917 34.27131 3252 ft 188 kts
2026-05-08 23:11 27.80198 34.27421 3185 ft 187 kts 11°
2026-05-08 23:12 27.81465 34.27739 3073 ft 187 kts 11°
2026-05-08 23:12 27.82734 34.28057 2888 ft 186 kts 12°
2026-05-08 23:12 27.83993 34.28374 2726 ft 184 kts 12°
2026-05-08 23:12 27.85223 34.28683 2632 ft 176 kts 12°
2026-05-08 23:13 27.86369 34.28972 2567 ft 164 kts 12°
2026-05-08 23:13 27.87436 34.29271 2451 ft 149 kts 18°
2026-05-08 23:13 27.88329 34.29770 2287 ft 139 kts 31°
2026-05-08 23:13 27.89113 34.30390 2129 ft 136 kts 37°
2026-05-08 23:14 27.89847 34.31060 1969 ft 137 kts 39°
2026-05-08 23:14 27.90563 34.31758 1807 ft 135 kts 40°
2026-05-08 23:14 27.91263 34.32472 1675 ft 136 kts 41°
2026-05-08 23:14 27.91947 34.33211 1502 ft 138 kts 40°
2026-05-08 23:15 27.92663 34.33941 1347 ft 140 kts 39°
2026-05-08 23:15 27.93356 34.34705 1173 ft 140 kts 37°
2026-05-08 23:15 27.94094 34.35425 1007 ft 141 kts 36°
2026-05-08 23:15 27.94823 34.36165 793 ft 141 kts 40°
2026-05-08 23:16 27.95541 34.36896 642 ft 137 kts 37°
2026-05-08 23:16 27.96251 34.37642 408 ft 138 kts 43°
2026-05-08 23:16 27.96953 34.38361 215 ft 135 kts 38°
2026-05-08 23:16 27.97602 34.39019 205 ft 113 kts 39°
2026-05-08 23:17 27.98240 34.39643 730 ft 118 kts 39°
2026-05-08 23:17 27.98904 34.40350 1438 ft 145 kts 41°
2026-05-08 23:17 27.99678 34.41179 1936 ft 162 kts 40°
2026-05-08 23:17 28.00577 34.42092 2265 ft 185 kts 40°
2026-05-08 23:18 28.01534 34.43134 2383 ft 191 kts 52°
2026-05-08 23:18 28.02018 34.44524 2402 ft 193 kts 82°
2026-05-08 23:18 28.01748 34.46026 2700 ft 202 kts 117°
2026-05-08 23:18 28.00705 34.47182 3194 ft 224 kts 155°
2026-05-08 23:19 27.99128 34.47375 3735 ft 243 kts 194°
2026-05-08 23:19 27.97631 34.46389 4231 ft 260 kts 225°
2026-05-08 23:19 27.96416 34.44821 4816 ft 268 kts 233°
2026-05-08 23:19 27.95331 34.43102 4966 ft 269 kts 236°
2026-05-08 23:20 27.94251 34.41276 5002 ft 290 kts 237°
2026-05-08 23:20 27.93114 34.39373 5007 ft 294 kts 236°
2026-05-08 23:20 27.91928 34.37453 5009 ft 303 kts 234°
2026-05-08 23:20 27.90686 34.35504 4978 ft 305 kts 234°
2026-05-08 23:21 27.89427 34.33572 4980 ft 305 kts 233°
2026-05-08 23:21 27.88168 34.31665 4977 ft 299 kts 233°
2026-05-08 23:21 27.86951 34.29837 4859 ft 284 kts 233°
2026-05-08 23:21 27.85746 34.28028 4147 ft 294 kts 234°
2026-05-08 23:22 27.84499 34.26154 3397 ft 304 kts 234°
2026-05-08 23:22 27.83218 34.24229 2599 ft 305 kts 235°
2026-05-08 23:22 27.82084 34.22305 2309 ft 277 kts 250°
2026-05-08 23:22 27.81891 34.20298 2363 ft 250 kts 285°
2026-05-08 23:23 27.82731 34.18726 2380 ft 223 kts 324°
2026-05-08 23:23 27.84075 34.18077 2388 ft 204 kts 350°
2026-05-08 23:23 27.85444 34.18096 2400 ft 194 kts 15°
2026-05-08 23:23 27.86639 34.18783 2642 ft 196 kts 39°
2026-05-08 23:24 27.87370 34.20063 2818 ft 196 kts 72°
2026-05-08 23:24 27.87734 34.21542 2899 ft 194 kts 72°
2026-05-08 23:24 27.88127 34.22973 2822 ft 187 kts 69°
2026-05-08 23:24 27.88508 34.24349 2514 ft 182 kts 71°
2026-05-08 23:25 27.88885 34.25708 2392 ft 181 kts 71°
2026-05-08 23:25 27.89264 34.27078 2354 ft 183 kts 71°
2026-05-08 23:25 27.89641 34.28440 2207 ft 181 kts 70°
2026-05-08 23:25 27.90015 34.29790 2027 ft 178 kts 71°
2026-05-08 23:26 27.90441 34.31005 1858 ft 155 kts 59°
2026-05-08 23:26 27.91041 34.31950 1689 ft 144 kts 48°
2026-05-08 23:26 27.91703 34.32776 1515 ft 139 kts 44°
2026-05-08 23:26 27.92380 34.33544 1348 ft 139 kts 43°
2026-05-08 23:27 27.93079 34.34303 1158 ft 138 kts 40°
2026-05-08 23:27 27.93776 34.35046 1006 ft 139 kts 40°
2026-05-08 23:27 27.94484 34.35799 819 ft 140 kts 38°
2026-05-08 23:27 27.95179 34.36534 618 ft 136 kts 39°
2026-05-08 23:28 27.95884 34.37259 503 ft 137 kts 39°
2026-05-08 23:28 27.96578 34.37970 267 ft 132 kts 39°
2026-05-08 23:28 27.97226 34.38636 176 ft 114 kts 43°
2026-05-08 23:28 27.97687 34.39117 172 ft 63 kts 44°
2026-05-08 23:29 27.97888 34.39334 174 ft 19 kts 41°
2026-05-08 23:29 27.97981 34.39284 174 ft 18 kts 312°
2026-05-08 23:29 27.98047 34.39205 172 ft 7 kts 316°
2026-05-08 23:29 27.98082 34.39216 172 ft 6 kts 57°
2026-05-08 23:30 27.98103 34.39253 172 ft 5 kts 54°
2026-05-08 23:30 27.98124 34.39279 172 ft 4 kts 46°
2026-05-08 23:30 27.98137 34.39282 172 ft 1 kts 323°
2026-05-08 23:30 27.98098 34.39244 172 ft 17 kts 218°
2026-05-08 23:31 27.97991 34.39146 172 ft 20 kts 221°
2026-05-08 23:31 27.97896 34.39037 172 ft 19 kts 221°
2026-05-08 23:31 27.97817 34.38955 172 ft 13 kts 223°
2026-05-08 23:31 27.97753 34.38890 172 ft 12 kts 222°
2026-05-08 23:32 27.97695 34.38830 172 ft 11 kts 222°
2026-05-08 23:32 27.97641 34.38773 172 ft 10 kts 222°
2026-05-08 23:32 27.97579 34.38710 172 ft 8 kts 223°
2026-05-08 23:32 27.97559 34.38689 172 ft 2 kts 222°
2026-05-08 23:33 27.97549 34.38679 172 ft 2 kts 222°
2026-05-08 23:33 27.97533 34.38661 172 ft 3 kts 223°
2026-05-08 23:33 27.97527 34.38656 172 ft 0 kts 223°
2026-05-08 23:34 27.97526 34.38653 172 ft 1 kts 236°
2026-05-08 23:34 27.97533 34.38627 172 ft 5 kts 307°
2026-05-08 23:35 27.97560 34.38594 172 ft 6 kts 313°
2026-05-08 23:35 27.97572 34.38579 172 ft 2 kts 313°
2026-05-08 23:35 27.97578 34.38573 172 ft 0 kts 313°